Location: Guadanolo
(41.9167°N, 12.9333°E)
Time: 21:22:32
(UTC+00:00)

Nadezhda 1 Rocket - Pass Details

Date: 21 December 2019
Orbit: 941 x 1006 km, 83.0° (Epoch: 23 January)

Event Time Altitude Azimuth Distance (km) Brightness Sun altitude
Rises 18:16:42 0° 355° (N) 3,622 7.0 -28.2°
Reaches altitude 10° 18:19:15 10° 359° (N) 2,669 6.2 -28.6°
Enters shadow 18:19:52 13° 0° (N) 2,441 6.0 -28.7°
